Home   Weather   Moreno Valley   Past weeks

Flag for USA Past Weather in Moreno Valley, California, USA — Yesterday and Last 2 Weeks

Now
64 °F

Clear.


Feels Like: 64 °F
Forecast: 65 / 90 °F
Wind: No wind

Location: Riverside / March Air Force Base

Current Time: Sep 29, 2016 at 4:54:39 AM

Latest Report: Sep 29, 2016 at 3:58 AM


Visibility: 10 mi

Pressure: 29.98 "Hg

Humidity: 55%

Dew Point: 48 °F

Location of Moreno ValleyLocation

Past Weather in Moreno Valley — Graph

°F

Moreno Valley Temperature Yesterday

Maximum temperature yesterday: 90 °F (at 12:58 PM)
Minimum temperature yesterday: 62 °F (at 5:58 AM)
Average temperature yesterday: 76 °F

High & Low Weather Summary for the Past Weeks

 TemperatureHumidityPressure
High102 °F (Sep 18, 1:58 PM)100% (Sep 14, 4:58 AM)30.06 "Hg (Sep 14, 4:58 AM)
Low49 °F (Sep 15, 5:58 AM)6% (Sep 18, 11:58 AM)29.80 "Hg (Sep 22, 3:58 PM)
Average73 °F48%29.93 "Hg
* Reported Sep 13 11:58 PM — Sep 28 11:58 PM, Moreno Valley, Weather by CustomWeather, © 2016

Note: Actual official high and low records may vary slightly from our data, if they occured in-between our weather recording intervals... More about our weather records

Advertising

Moreno Valley Weather History for the Previous 24 Hours

Scroll right to see more
 ConditionsComfort  
Time TempWeatherWind HumidityBarometerVisibility
11:58 PM
Wed, Sep 28
71 °FClear.No wind45%29.97 "Hg10 mi
10:58 PM71 °FClear.2 mph47%29.96 "Hg10 mi
9:58 PM72 °FClear.1 mph44%29.96 "Hg10 mi
8:58 PM76 °FClear.6 mph39%29.95 "Hg10 mi
7:58 PM78 °FClear.6 mph38%29.93 "Hg10 mi
6:58 PM81 °FClear.12 mph33%29.92 "Hg10 mi
5:58 PM88 °FSunny.2 mph25%29.89 "Hg10 mi
4:58 PM88 °FPassing clouds.1 mph26%29.88 "Hg10 mi
3:58 PM88 °FScattered clouds.7 mph26%29.88 "Hg10 mi
2:58 PM90 °FScattered clouds.2 mph23%29.89 "Hg10 mi
1:58 PM88 °FBroken clouds.5 mph26%29.89 "Hg10 mi
12:58 PM90 °FSunny.6 mph24%29.90 "Hg10 mi
11:58 AM87 °FSunny.6 mph27%29.92 "Hg10 mi
10:58 AM85 °FSunny.2 mph28%29.94 "Hg10 mi
9:58 AM80 °FSunny.1 mph34%29.94 "Hg10 mi
8:58 AM73 °FSunny.1 mph42%29.94 "Hg10 mi
7:58 AM69 °FSunny.3 mph49%29.93 "Hg10 mi
6:58 AM62 °FSunny.No wind56%29.92 "Hg10 mi
5:58 AM62 °FPassing clouds.No wind55%29.91 "Hg10 mi
4:58 AM63 °FPassing clouds.No wind52%29.90 "Hg10 mi
Weather by CustomWeather, © 2016

See weather overviewHow to use our weather pages